Flag for Czech Republic Weather past 2 weeks in Prague, Czech Republic

Now
79 °F

Passing clouds.


Feels Like: 78 °F
Forecast: 64 / 81 °F
Wind: 7 mph from East

Location: Prague Ruzyne Airport

Current Time: Aug 1, 2015 at 4:57:46 PM

Latest Report: Aug 1, 2015 at 4:30 PM


Visibility: N/A

Pressure: 29.98 "Hg

Humidity: 26%

Dew point: 41 °F

Location of PragueLocation

Historic Weather in Prague — Graph

°F

Prague temperature yesterday

Maximum temperature yesterday: 70 °F (at 4:30 PM)
Minimum temperature yesterday: 46 °F (at 5:00 AM)
Average temperature yesterday: 60 °F

Past Weeks' High & Low Weather Summary

 TemperatureHumidityPressure
High97 °F (Jul 22, 4:00 PM)100% (Jul 25, 7:30 AM)30.09 "Hg (Jul 25, 7:30 AM)
Low46 °F (Jul 31, 5:00 AM)23% (Jul 22, 4:30 PM)29.65 "Hg (Jul 27, 3:30 PM)
Average69 °F58%29.91 "Hg
* Reported Jul 17 3:00 PM — Aug 1 3:30 PM, Prague, Weather by CustomWeather, © 2015

Note: Actual official high and low records may vary slightly from our data, if they occured in-between our weather recording intervals... More about our weather records

Advertising

Prague weather history for previous 24 hours

 ConditionsComfort  
Time TempWeatherWind HumidityBarometerVisibility
3:30 PM
Sat, Aug 1
79 °FPassing clouds.3 mph26%29.98 "HgN/A
3:00 PM77 °FPassing clouds.8 mph30%29.98 "HgN/A
2:30 PM79 °FPassing clouds.9 mph28%29.98 "HgN/A
2:00 PM77 °FPassing clouds.8 mph30%29.98 "HgN/A
1:30 PM77 °FPassing clouds.10 mph30%29.98 "HgN/A
1:00 PM75 °FPassing clouds.9 mph31%29.98 "HgN/A
12:30 PM73 °FPassing clouds.10 mph33%30.01 "HgN/A
12:00 PM75 °FPassing clouds.10 mph31%30.01 "HgN/A
11:30 AM72 °FPassing clouds.12 mph41%30.01 "HgN/A
11:00 AM70 °FPassing clouds.10 mph43%30.01 "HgN/A
10:30 AM68 °FPassing clouds.7 mph46%30.01 "HgN/A
10:00 AM64 °FPassing clouds.6 mph49%30.04 "HgN/A
9:30 AM61 °FPassing clouds.8 mph59%30.01 "HgN/A
9:00 AM59 °FPassing clouds.6 mph63%30.01 "HgN/A
8:30 AM57 °FPassing clouds.5 mph67%30.01 "HgN/A
8:00 AM55 °FPassing clouds.6 mph67%30.04 "HgN/A
7:30 AM54 °FPassing clouds.8 mph67%30.04 "HgN/A
7:00 AM54 °FSunny.6 mph72%30.01 "Hg10 mi
6:30 AM52 °FClear.5 mph72%30.04 "Hg10 mi
6:00 AM50 °FPassing clouds.5 mph76%30.04 "HgN/A
5:30 AM52 °FClear.8 mph72%30.04 "Hg10 mi
5:00 AM52 °FClear.6 mph72%30.04 "Hg10 mi
4:30 AM54 °FClear.7 mph67%30.04 "Hg10 mi
4:00 AM54 °FClear.6 mph67%30.04 "Hg10 mi
3:30 AM54 °FClear.7 mph67%30.04 "Hg10 mi
3:00 AM54 °FClear.6 mph67%30.04 "Hg10 mi
2:30 AM55 °FClear.6 mph63%30.04 "Hg10 mi
2:00 AM54 °FClear.6 mph67%30.04 "Hg10 mi
1:30 AM55 °FClear.6 mph63%30.04 "Hg10 mi
1:00 AM55 °FClear.6 mph63%30.07 "Hg10 mi
12:30 AM59 °FClear.6 mph55%30.07 "Hg10 mi
11:30 PM
Fri, Jul 31
57 °FClear.6 mph59%30.07 "Hg10 mi
11:00 PM59 °FClear.6 mph55%30.07 "Hg10 mi
10:30 PM59 °FClear.7 mph55%30.07 "Hg10 mi
10:00 PM63 °FClear.7 mph52%30.07 "Hg10 mi
9:30 PM63 °FSunny.7 mph49%30.07 "Hg10 mi
9:00 PM64 °FSunny.7 mph46%30.04 "Hg10 mi
8:30 PM66 °FSunny.9 mph43%30.04 "Hg10 mi
8:00 PM66 °FSunny.8 mph43%30.04 "Hg10 mi
7:30 PM68 °FSunny.9 mph40%30.04 "Hg10 mi
7:00 PM68 °FPassing clouds.5 mph40%30.04 "HgN/A
6:30 PM68 °FPassing clouds.7 mph40%30.04 "HgN/A
6:00 PM70 °FPassing clouds.7 mph40%30.04 "HgN/A
5:30 PM70 °FSunny.7 mph38%30.04 "Hg10 mi
5:00 PM70 °FSunny.6 mph40%30.07 "Hg10 mi
4:30 PM70 °FPassing clouds.5 mph38%30.07 "HgN/A
4:00 PM68 °FPassing clouds.6 mph43%30.07 "HgN/A
Weather by CustomWeather, © 2015

See weather overviewHow to use our weather pages